Timation II

operational
NORAD ID: 4257 Int'l Des: 1969-082 Owner: NRL Country: US
LEOCIRCULAR

About Timation II

Description loading...

Live Position

Loading 3D Globe...

Upcoming Passes

Altitude History

Altitude vs Time

uPlot chart will show altitude changes over time

Two-Line Element Set

1 04257U 69082C 25339.15358050 .00000155 00000-0 15062-3 0 9990
2 04257 70.0129 146.3145 0019969 7.5426 105.7846 13.96339656859566
Epoch: Dec 5, 2025 • Age: 18 hours

Current Status

Altitude 927.7 km
Velocity 7.38 km/s
Sub-Earth Point -20.52°S, 61.9°W
Type other

Large Constellations

Loading constellations...